TimeMDT,TemperatureF,Dew PointF,Humidity,Sea Level PressureIn,VisibilityMPH,Wind Direction,Wind SpeedMPH,Gust SpeedMPH,PrecipitationIn,Events,Conditions,WindDirDegrees,DateUTC
12:56 AM,36.0,14.0,41,30.18,-9999.0,South,4.6,-,N/A,,Unknown,180,2013-04-25 06:56:00
1:56 AM,32.0,15.1,50,30.17,-9999.0,SW,9.2,-,N/A,,Unknown,220,2013-04-25 07:56:00
2:56 AM,37.0,17.1,44,30.14,-9999.0,SW,9.2,-,N/A,,Unknown,230,2013-04-25 08:56:00
3:56 AM,41.0,17.1,38,30.11,-9999.0,SW,15.0,20.7,N/A,,Unknown,230,2013-04-25 09:56:00
4:56 AM,41.0,17.1,38,30.10,-9999.0,SW,16.1,23.0,N/A,,Unknown,230,2013-04-25 10:56:00
5:56 AM,39.9,17.1,40,30.09,-9999.0,SW,13.8,21.9,N/A,,Unknown,220,2013-04-25 11:56:00
6:56 AM,43.0,19.0,38,30.08,-9999.0,SW,11.5,-,N/A,,Unknown,230,2013-04-25 12:56:00
7:56 AM,48.9,21.0,33,30.07,-9999.0,WSW,21.9,32.2,N/A,,Unknown,240,2013-04-25 13:56:00
8:56 AM,53.1,23.0,31,30.07,-9999.0,SW,19.6,32.2,N/A,,Unknown,230,2013-04-25 14:56:00
9:56 AM,57.9,25.0,28,30.05,-9999.0,SW,25.3,38.0,N/A,,Unknown,220,2013-04-25 15:56:00
10:56 AM,55.9,24.1,29,30.07,-9999.0,SW,27.6,39.1,N/A,,Unknown,220,2013-04-25 16:56:00
11:56 AM,62.1,24.1,23,30.04,-9999.0,SSW,33.4,44.9,N/A,,Unknown,210,2013-04-25 17:56:00
12:56 PM,63.0,24.1,23,30.00,-9999.0,SW,29.9,43.7,N/A,,Unknown,220,2013-04-25 18:56:00
1:56 PM,61.0,24.1,24,29.99,-9999.0,SSW,32.2,38.0,N/A,,Unknown,210,2013-04-25 19:56:00
2:56 PM,62.1,25.0,24,29.96,-9999.0,SSW,25.3,33.4,N/A,,Unknown,200,2013-04-25 20:56:00
3:56 PM,64.9,25.0,22,29.88,-9999.0,SSW,31.1,39.1,N/A,,Unknown,210,2013-04-25 21:56:00
4:56 PM,69.1,26.1,20,29.85,-9999.0,SSW,25.3,32.2,N/A,,Unknown,200,2013-04-25 22:56:00
5:56 PM,69.1,26.1,20,29.83,-9999.0,SSW,26.5,35.7,N/A,,Unknown,210,2013-04-25 23:56:00
6:56 PM,64.0,30.9,29,29.85,-9999.0,SSW,25.3,33.4,N/A,,Unknown,210,2013-04-26 00:56:00
7:56 PM,61.0,34.0,36,29.86,-9999.0,SSW,23.0,-,N/A,,Unknown,200,2013-04-26 01:56:00
8:56 PM,57.9,36.0,44,29.83,-9999.0,SSW,29.9,40.3,N/A,,Unknown,200,2013-04-26 02:56:00
9:56 PM,57.0,37.0,47,29.86,-9999.0,SW,33.4,39.1,N/A,,Unknown,220,2013-04-26 03:56:00
10:56 PM,53.1,37.0,55,29.91,-9999.0,SW,11.5,-,N/A,,Unknown,230,2013-04-26 04:56:00
11:56 PM,48.9,36.0,61,29.94,-9999.0,SSW,6.9,-,N/A,,Unknown,210,2013-04-26 05:56:00